Location: Unspecified
(0.0000°N, 0.0000°E)
Time: 03:37:16
(UTC+00:00)

Vanguard 2 - Pass Details

Date: 17 December 2018
Orbit: 553 x 2939 km, 32.9° (Epoch: 18 March)

Event Time Altitude Azimuth Distance (km) Brightness Sun altitude
Rises 02:18:59 0° 312° (NW) 4,922 - -48.2°
Reaches altitude 10° 02:21:47 10° 314° (NW) 4,205 - -47.6°
Maximum altitude 02:34:09 72° 38° (NE) 2,605 - -45.1°
Exits shadow 02:34:17 72° 41° (NE) 2,611 9.9 -45.0°
Drops below altitude 10° 02:51:48 10° 119° (ESE) 5,768 12.6 -41.4°
Sets 02:56:23 0° 121° (ESE) 6,778 13.2 -40.4°
